Location: Lac de la Montange Noire
(46.1952°N, 74.2701°W)
Time: 12:04:39
(UTC-04:00)

Iridium 42 - Visible Passes

Search period start: 29 August 2014 00:00
Search period end: 08 September 2014 00:00
Orbit: 776 x 779 km, 86.4° (Epoch: 28 August)

Date Brightness Start Highest point End Pass type
(mag) Time Alt. Az. Time Alt. Az. Time Alt. Az.
29 Aug 7.7 21:02:17 10° NNW 21:06:37 27° W 21:10:56 10° SW visible
30 Aug 6.7 20:28:19 10° NNW 20:33:18 47° W 20:38:15 10° SSW visible
31 Aug 8.8 21:38:15 10° WNW 21:39:39 11° WNW 21:41:04 10° W visible
01 Sep 8.3 21:02:52 10° NNW 21:06:32 20° WNW 21:10:11 10° WSW visible
02 Sep 7.4 20:28:37 10° NNW 20:33:16 34° W 20:37:54 10° SSW visible
03 Sep 6.3 19:54:46 10° N 19:59:54 59° W 20:05:00 10° SSW visible
04 Sep 8.6 21:03:45 10° NW 21:06:23 14° WNW 21:09:01 10° WSW visible
05 Sep 8.1 20:29:04 10° NNW 20:33:12 24° W 20:37:19 10° SW visible
06 Sep 7.1 19:55:01 10° NNW 19:59:54 42° W 20:04:46 10° SSW visible
